Regional Weather Roundup
Issued by NWS Charleston, WV

Home | Current Version | Previous Version | Graphics & Text | Print | Product List | Glossary On
Versions: 1 2 3 4 5 6 7 8 9 10 11 12 13 14 15 16 17 18 19 20 21 22 23 24 25 26 27 28 29 30 31 32 33 34 35 36 37 38 39 40 41 42 43 44 45 46 47 48 49 50
000
ASUS41 KRLX 271010
RWRRLX
West Virginia Regional Weather Roundup
National Weather Service Charleston WV
500 AM EST TUE JAN 27 2015

Note: "fair" indicates few or no clouds below 12,000 feet with no
significant weather and/or obstructions to visibility.

WVZ003-271100-
Northern Panhandle of West Virginia

CITY           SKY/WX    TMP DP  RH WIND       PRES   REMARKS
WHEELING       CLOUDY    18  14  84 NW9       29.86S WCI   7
$$

WVZ009-271100-
Northwest West Virginia

CITY           SKY/WX    TMP DP  RH WIND       PRES   REMARKS
PARKERSBURG    CLOUDY    20  13  74 NW5       29.93R
$$

WVZ006-271100-
Western West Virginia

CITY           SKY/WX    TMP DP  RH WIND       PRES   REMARKS
HUNTINGTON     CLOUDY    19  15  84 NE3       29.91R
$$

WVZ015-271100-
West Central West Virginia

CITY           SKY/WX    TMP DP  RH WIND       PRES   REMARKS
CHARLESTON       N/A     19  14  81 CALM      29.89S
$$

WVZ022-031-271100-
North Central West Virginia

CITY           SKY/WX    TMP DP  RH WIND       PRES   REMARKS
CLARKSBURG     LGT SNOW  21  16  81 NW7       29.85S
MORGANTOWN     CLOUDY    21  15  78 NW6       29.85S
$$

WVZ025-035-042-045-271100-
Southern West Virginia

CITY           SKY/WX    TMP DP  RH WIND       PRES   REMARKS
BECKLEY        CLOUDY    19  12  74 NW10      29.77S WCI   7
LOGAN          CLOUDY    23  18  80 CALM      29.84S
BLUEFIELD      CLOUDY    21  13  71 NW10G21   29.74S WCI  10
LEWISBURG      CLEAR     21  12  69 W7        29.76S
$$

WVZ047-271100-
Northern Mountains of West Virginia

CITY           SKY/WX    TMP DP  RH WIND       PRES   REMARKS
ELKINS         MOCLDY    20  14  77 W7        29.79S
$$

WVZ052-271100-
Eastern Panhandle of West Virginia

CITY           SKY/WX    TMP DP  RH WIND       PRES   REMARKS
MARTINSBURG    LGT SNOW  29  19  66 NW15G23   29.78R
PETERSBURG     MOCLDY    26  23  91 CALM      29.80R
$$


USA.gov is the U.S. government's official web portal to all federal, state and local government web resources and services.